Regional Weather Roundup
Issued by NWS

Home | Current Version | Previous Version | Graphics & Text | Print | Product List | Glossary On
Versions: 1 2 3 4 5 6 7 8 9 10 11 12 13 14 15 16 17 18 19 20 21 22 23 24 25 26 27 28 29 30 31 32 33 34 35 36 37 38 39 40 41 42 43 44 45 46 47 48 49 50
000
ASUS43 KMPX 272101
RWRMN
WEATHER ROUNDUP FOR MINNESOTA
NATIONAL WEATHER SERVICE TWIN CITIES/CHANHASSEN MN
300 PM CST THU NOV 27 2014


NOTE: "FAIR" INDICATES FEW OR NO CLOUDS BELOW 12,000 FEET WITH NO
SIGNIFICANT WEATHER AND/OR OBSTRUCTIONS TO VISIBILITY. N/A MEANS
CURRENT SKY AND/OR WEATHER CONDITIONS ARE NOT AVAILABLE.

MNZ060>063-068>070-272200-
   Twin Cities Metro

CITY           SKY/WX    TMP DP  RH WIND       PRES   REMARKS
TWIN CITIES    MOSUNNY    9  -5  53 CALM      30.44F
ST PAUL        SUNNY     11  -4  51 CALM      30.47S
CRYSTAL        SUNNY     11  -4  51 CALM      30.43F
BLAINE         SUNNY     10  -2  56 CALM      30.43F
LAKEVILLE      SUNNY      5  -6  61 CALM      30.44F
EDEN PRAIRIE   SUNNY      8  -3  61 S6        30.43F WCI  -2
SOUTH ST PAUL  SUNNY     10  -4  52 CALM      30.45F
LAKE ELMO      FAIR      10  -2  56 W3        30.44S
$$
MNZ001>005-007-008-013>017-022>024-027-028-272200-
   Northwest Minnesota

CITY           SKY/WX    TMP DP  RH WIND       PRES   REMARKS
BEMIDJI        FAIR       3  -8  60 E3        30.30F
HALLOCK          N/A      5  -2  72 S14       30.32F WCI -12
ROSEAU         MOSUNNY    5  -6  61 S10       30.33F WCI -10
WARROAD        SUNNY      3  -6  66 S5        30.33F WCI  -6
THIEF RVR FALL PTSUNNY    1  -2  85 SE9       30.32F WCI -14
CROOKSTON      PTSUNNY    3  -4  72 S10       30.34F WCI -12
FOSSTON        MOSUNNY    3  -6  66 CALM      30.32F
DETROIT LAKES  SUNNY      9  -2  61 SE8       30.32F WCI  -4
MOORHEAD       MOSUNNY    7   0  72 S9        30.34F WCI  -7
PARK RAPIDS    SUNNY      7  -5  57 SE6       30.31F WCI  -3
MAHNOMEN       FAIR       6  -4  63 S6        30.33S WCI  -5
$$
MNZ006-009>011-018-025>026-272200-
   North Central Minnesota

CITY           SKY/WX    TMP DP  RH WIND       PRES   REMARKS
BAUDETTE       SUNNY      4  -6  63 S6        30.31F WCI  -7
FLAG ISLAND    CLEAR      0  -6  78 S10       30.31F WCI -17
INTL FALLS     CLEAR      3  -7  63 SW6       30.33F WCI  -8
WASKISH        SUNNY      1  -8  66 CALM      30.33F
BIG FORK       SUNNY      7  -8  51 CALM      30.33F
LONGVILLE      SUNNY      7  -6  56 CALM      30.33F
GRAND RAPIDS   SUNNY      5  -8  56 CALM      30.32F
CRANE LAKE     CLEAR      3  -8  60 CALM      30.37F
ORR            CLEAR      3  -9  55 CALM      30.31F
COOK           CLEAR      3  -8  60 W5        30.33F WCI  -6
WALKER         FAIR       6  -7  55 S5        30.33F WCI  -3
$$
MNZ012-019>021-037-272200-
   Northeast Minnesota

CITY           SKY/WX    TMP DP  RH WIND       PRES   REMARKS
DULUTH         SUNNY      8  -7  50 W7        30.32F WCI  -3
ELY            CLEAR      3  -8  60 SW5       30.32F WCI  -6
HIBBING        SUNNY      7  -9  48 NW5       30.33F WCI  -2
EVELETH        SUNNY      5  -8  56 CALM      30.34F
DULUTH HARBOR  SUNNY     12  -4  48 CALM      30.42F
TWO HARBORS    SUNNY     12  -2  52 CALM      30.34F
SILVER BAY     CLEAR     12  -6  44 W3        30.33F
GRAND MARAIS     N/A     12  -4  48 NW6       30.39S WCI   3
G MARAIS ARPRT CLEAR      3  -8  60 NW7       30.26F WCI  -9
$$
MNZ029>031-032-039>041-046>048-054>057-064-272200-
   West Central Minnesota

CITY           SKY/WX    TMP DP  RH WIND       PRES   REMARKS
FERGUS FALLS   SUNNY      7  -6  56 S10       30.39S WCI  -8
WHEATON        SUNNY      3  -2  78 SE12      30.37F WCI -13
MORRIS         SUNNY      3  -4  72 S13       30.35F WCI -14
ALEXANDRIA     SUNNY      7  -3  64 S9        30.33F WCI  -7
ELBOW LAKE     FAIR       4  -4  69 SE9       30.34F HAZE    WCI -11
WADENA         SUNNY      7  -4  61 SE5       30.32F WCI  -2
GLENWOOD       SUNNY      5  -4  66 S7        30.35F WCI  -7
APPLETON       SUNNY      5  -4  66 SE10      30.36F WCI -10
BENSON         SUNNY      1  -6  71 S9        30.37F WCI -14
ORTONVILLE     SUNNY      3  -6  66 SE12      30.34F WCI -13
MADISON        SUNNY      7   0  72 SE12      30.36F WCI  -9
WILLMAR        FAIR       5  -6  61 SE7       30.39F WCI  -7
$$
MNZ033>034-036-042>043-049>051-058-059-272200-
   Central Minnesota

CITY           SKY/WX    TMP DP  RH WIND       PRES   REMARKS
ST CLOUD       FAIR       7  -6  55 SW6       30.40F WCI  -3
SAUK CENTRE    FAIR       4  -4  69 SE6       30.37F WCI  -7
PAYNESVILLE    SUNNY      2  -9  60 SE5       30.40F WCI  -7
AITKIN         SUNNY     10  -8  44 CALM      30.35F
PINE RIVER     SUNNY      9  -4  56 E3        30.35F
BRAINERD       SUNNY      6  -7  54 S5        30.36F WCI  -3
STAPLES        SUNNY      9  -8  47 S6        30.34F WCI  -1
LONG PRAIRIE   FAIR       7  -4  61 S8        30.36F WCI  -6
LITTLE FALLS   SUNNY      9  -8  47 SW3       30.38F
LITCHFIELD     SUNNY      7  -2  66 CALM      30.40F
BUFFALO        SUNNY      7  -4  60 S3        30.44F
MAPLE LAKE     SUNNY      8  -4  57 SW5       30.42F WCI  -1
$$
MNZ037-044-045-052-053-272200-
   East Central Minnesota

CITY           SKY/WX    TMP DP  RH WIND       PRES   REMARKS
PRINCETON      SUNNY     10  -6  48 CALM      30.40F
MORA             N/A    N/A N/A N/A MISG        N/A
CAMBRIDGE      SUNNY     10  -2  56 CALM      30.40F
RUSH CITY      SUNNY      8  -4  57 CALM      30.42F
MOOSE LAKE     SUNNY     10  -6  48 SW3       30.36F
HINCKLEY       FAIR      10  -4  52 CALM      30.40F
CLOQUET        SUNNY      9  -8  47 W3        30.34F
MCGREGOR       SUNNY     10  -6  48 S3        30.36F
$$
MNZ071>073-080-081-089-090-097-098-272200-
   Southwest Minnesota

CITY           SKY/WX    TMP DP  RH WIND       PRES   REMARKS
MONTEVIDEO     SUNNY      5  -2  72 S9        30.39F WCI  -9
GRANITE FALLS  SUNNY      4  -4  70 SE7       30.40F WCI  -9
CANBY          PTSUNNY    8  -1  68 SE12      30.35F WCI  -7
MARSHALL       SUNNY      5  -4  66 SE10      30.34F WCI -10
REDWOOD FALLS  SUNNY      0  -6  76 S8        30.41F WCI -14
OLIVIA         SUNNY      5  -4  66 SE6       30.40F WCI  -6
PIPESTONE      CLOUDY     9   0  66 S10       30.27F WCI  -6
WINDOM         SUNNY      7  -4  61 E8        30.36F WCI  -6
WORTHINGTON    CLOUDY     7  -6  56 SE8       30.33F WCI  -6
JACKSON        SUNNY      5  -4  66 SE8       30.36F WCI  -8
TRACY          PTSUNNY    9  -1  62 SE9       30.35F WCI  -4
SLAYTON        CLOUDY     9   0  69 SE10      30.32F WCI  -6
$$
MNZ065>067-074>077-082>085-091>093-272200-
   South Central Minnesota

CITY           SKY/WX    TMP DP  RH WIND       PRES   REMARKS
MANKATO        SUNNY      1  -8  66 SE5       30.43F WCI  -8
NEW ULM        SUNNY      0  -6  78 S3        30.43F
ST JAMES       SUNNY      1  -6  71 SE3       30.43F
FAIRMONT       SUNNY      0  -8  71 SE5       30.40F WCI -10
GLENCOE        SUNNY      6  -1  70 S3        30.43S
FARIBAULT      SUNNY      7  -4  61 CALM      30.43F
OWATONNA       SUNNY      0  -8  71 SW3       30.42F
WASECA         SUNNY      1  -8  66 CALM      30.44F
ALBERT LEA     SUNNY      1  -6  71 N2        30.41F
$$
MNZ078>079-086>088-094>096-272200-
   Southeast Minnesota

CITY           SKY/WX    TMP DP  RH WIND       PRES   REMARKS
ROCHESTER      SUNNY      4  -4  69 W6        30.41S WCI  -7
RED WING         N/A     10  -2  56 W3        30.45R
STANTON        SUNNY      6  -4  63 CALM      30.43F
DODGE CENTER   SUNNY      3  -6  66 N3        30.39F
WINONA         SUNNY     14   1  57 W5        30.46S WCI   6
AUSTIN         SUNNY      3  -6  66 NW3       30.41F
PRESTON        SUNNY      6  -3  66 NW6       30.40F WCI  -4
$$
ABBREVIATIONS USED IN REMARKS
   TC - TEMPERATURES IN CELSIUS
  WCI - WIND CHILL INDEX
   HX - HEAT INDEX
  VSB - VISIBILITY
$$


USA.gov is the U.S. government's official web portal to all federal, state and local government web resources and services.